GW0115 Weather Reports


time (UTC)temp
F
wind
direction
speed
knots
gust
knots
rain 1hr
in
rain 24hr
in
rain mn
in
humidity
%
barometer
mb
20260504060108 47 0 0.0 4.3 0.00 0.00 0.00 73 1008.7
20260504044559 48 0 2.6 12.2 0.00 0.00 0.00 67 1008.8
20260504043055 48 258 0.9 7.0 0.00 0.00 0.00 63 1008.9
20260504041551 48 0 0.0 5.2 0.00 0.00 0.00 59 1008.8
20260504040105 47 0 0.0 0.9 0.00 0.00 0.00 57 1008.9
20260504034600 47 0 0.0 5.2 0.00 0.00 0.00 56 1009.0
20260504033126 43 0 0.0 0.0 0.00 0.00 0.00 66 1008.9
20260504031558 43 0 0.0 0.0 0.00 0.00 0.00 63 1008.9
20260504030056 42 0 0.0 0.0 0.00 0.00 0.00 63 1009.0
20260504024557 41 0 0.0 0.0 0.00 0.00 0.00 63 1008.9
20260504023104 41 0 0.0 0.0 0.00 0.00 0.00 63 1008.8
20260504021554 41 0 0.0 0.0 0.00 0.00 0.00 59 1009.0
20260504020057 41 0 0.0 0.0 0.00 0.00 0.00 61 1009.0
20260504014600 41 0 0.0 0.0 0.00 0.00 0.00 59 1009.1
20260504013109 42 0 0.0 0.0 0.00 0.00 0.00 58 1009.1
20260504011556 43 0 0.0 0.0 0.00 0.00 0.00 54 1008.9
20260504010104 44 0 0.0 0.0 0.00 0.00 0.00 53 1008.9
20260504004612 45 0 0.0 0.0 0.00 0.00 0.00 51 1008.7
20260504003059 46 0 0.0 0.0 0.00 0.00 0.00 48 1008.6
20260504001601 48 0 0.0 0.0 0.00 0.00 0.00 39 1008.4
20260504000052 49 0 0.0 0.0 0.00 0.00 0.00 40 1008.3
20260503234555 50 0 0.0 0.0 0.00 0.00 0.00 38 1008.1
20260503233050 51 0 0.0 3.5 0.00 0.00 0.00 38 1007.8
20260503231555 50 0 0.0 5.2 0.00 0.00 0.00 37 1007.5
20260503224552 51 0 0.0 0.0 0.00 0.00 0.00 39 1007.3
20260503223058 52 0 0.0 0.9 0.00 0.00 0.00 37 1007.3
20260503221554 52 0 0.0 6.1 0.00 0.00 0.00 36 1007.3
20260503220057 53 0 0.9 7.8 0.00 0.00 0.00 35 1007.3
20260503214551 53 0 0.0 6.1 0.00 0.00 0.00 35 1007.3
20260503213105 53 0 0.0 5.2 0.00 0.00 0.00 35 1007.3
20260503211555 53 0 0.0 7.8 0.00 0.00 0.00 36 1007.3
20260503210057 53 0 0.9 7.8 0.00 0.00 0.00 38 1007.4
20260503204554 52 0 0.0 6.1 0.00 0.00 0.00 37 1007.6
20260503203056 52 0 0.0 3.5 0.00 0.00 0.00 39 1007.6
20260503201552 52 0 0.9 7.0 0.00 0.00 0.00 37 1007.8
20260503200057 53 0 0.9 9.6 0.00 0.00 0.00 37 1007.7
20260503194554 53 0 0.0 6.1 0.00 0.00 0.00 38 1007.8
20260503193055 52 0 0.0 7.0 0.00 0.00 0.00 40 1008.1
20260503191601 52 0 0.0 3.5 0.00 0.00 0.00 40 1008.3
20260503190052 51 204 0.0 7.0 0.00 0.00 0.00 40 1008.2
20260503184557 51 0 0.0 0.9 0.00 0.00 0.00 43 1008.5
20260503183110 51 0 0.0 4.3 0.00 0.00 0.00 43 1008.7
20260503181555 51 0 0.0 11.3 0.00 0.00 0.00 43 1008.8
20260503180053 51 0 0.0 0.0 0.00 0.00 0.00 44 1008.8
20260503174551 49 0 0.0 0.0 0.00 0.00 0.00 44 1008.8
20260503173113 49 0 0.0 9.6 0.00 0.00 0.00 45 1009.0
20260503171550 49 0 0.0 6.1 0.00 0.00 0.00 43 1008.9
20260503120109 43 0 0.0 0.0 0.00 0.00 0.00 72 1010.1